FW5768 Weather Reports


Display with metric or nautical units.
time (UTC)temp
F
wind
direction
speed
MPH
gust
MPH
rain 1hr
in
rain 24hr
in
rain mn
in
humidity
%
barometer
mb
20260508114304 62 133 7.0 15.0 0.00 0.13 0.00 62 1013.2
20260508113805 62 174 7.0 15.0 0.00 0.13 0.00 60 1013.0
20260508113304 62 113 5.0 14.0 0.00 0.13 0.00 62 1013.2
20260508112804 61 100 6.0 14.0 0.00 0.13 0.00 61 1013.2
20260508112307 61 138 6.0 17.0 0.00 0.13 0.00 64 1013.4
20260508111804 61 119 7.0 13.0 0.00 0.13 0.00 63 1013.5
20260508110804 60 152 9.0 16.0 0.00 0.13 0.00 64 1013.8
20260508110304 60 149 7.0 13.0 0.00 0.13 0.00 65 1013.6
20260508105804 60 151 6.0 13.0 0.00 0.13 0.00 63 1013.8
20260508105306 61 136 7.0 13.0 0.00 0.14 0.00 62 1013.7
20260508104803 61 150 6.0 15.0 0.00 0.14 0.00 64 1013.7
20260508104303 61 138 6.0 13.0 0.00 0.15 0.00 63 1013.6
20260508103804 61 119 7.0 13.0 0.00 0.15 0.00 64 1013.6
20260508103304 60 140 5.0 12.0 0.00 0.15 0.00 64 1013.8
20260508102804 60 142 9.0 16.0 0.00 0.15 0.00 65 1013.7
20260508102306 60 142 7.0 13.0 0.00 0.15 0.00 65 1013.8
20260508101803 60 158 6.0 12.0 0.00 0.15 0.00 64 1013.7
20260508101304 59 182 7.0 12.0 0.00 0.15 0.00 66 1013.8
20260508100304 59 144 7.0 13.0 0.00 0.15 0.00 64 1014.0
20260508095803 58 102 5.0 9.0 0.00 0.15 0.00 69 1013.9
20260508095306 58 135 6.0 12.0 0.00 0.15 0.00 68 1014.0
20260508094804 58 138 7.0 13.0 0.00 0.15 0.00 70 1013.9
20260508094304 57 124 6.0 15.0 0.00 0.15 0.00 73 1014.0
20260508093804 57 128 6.0 9.0 0.00 0.15 0.00 72 1014.0
20260508093304 57 148 7.0 15.0 0.00 0.15 0.00 73 1014.0
20260508092312 57 122 7.0 13.0 0.00 0.15 0.00 74 1013.9
20260508091803 57 138 7.0 14.0 0.00 0.15 0.00 74 1013.8
20260508091303 56 169 7.0 15.0 0.00 0.15 0.00 75 1013.6
20260508090803 57 128 6.0 10.0 0.00 0.15 0.00 75 1013.5
20260508090304 56 138 6.0 13.0 0.00 0.15 0.00 77 1013.6
20260508084803 55 145 5.0 9.0 0.00 0.15 0.00 79 1013.4
20260508084304 55 115 6.0 12.0 0.00 0.15 0.00 78 1013.2
20260508083804 54 119 6.0 10.0 0.00 0.15 0.00 79 1013.4
20260508083304 53 132 5.0 12.0 0.00 0.15 0.00 82 1013.2
20260508082306 52 140 7.0 10.0 0.00 0.15 0.00 85 1013.5
20260508081303 51 115 4.0 9.0 0.00 0.15 0.00 88 1013.6
20260508080804 51 117 3.0 9.0 0.00 0.15 0.00 89 1013.4
20260508080304 51 124 4.0 9.0 0.00 0.15 0.00 89 1013.3
20260508075803 50 134 4.0 8.0 0.00 0.15 0.00 89 1013.8
20260508075308 50 119 3.0 7.0 0.00 0.15 0.00 90 1013.7
20260508074804 50 128 5.0 8.0 0.00 0.15 0.00 90 1013.8
20260508073304 50 116 3.0 8.0 0.00 0.15 0.00 90 1013.6
20260508072803 50 117 3.0 7.0 0.00 0.15 0.00 91 1013.6
20260508072307 49 44 2.0 9.0 0.00 0.15 0.00 92 1013.7
20260508071803 49 108 2.0 9.0 0.00 0.15 0.00 92 1013.6
20260508071303 48 130 3.0 8.0 0.00 0.15 0.00 93 1013.5
20260508070804 48 113 3.0 7.0 0.00 0.15 0.00 93 1013.4
20260508065803 48 79 2.0 7.0 0.00 0.15 0.00 93 1013.1
20260508065306 48 78 3.0 9.0 0.00 0.15 0.00 93 1013.4
20260508063803 48 64 3.0 6.0 0.00 0.15 0.00 94 1013.7
20260508063303 48 67 3.0 6.0 0.00 0.15 0.00 94 1013.6
20260508062805 47 59 2.0 3.0 0.00 0.15 0.00 94 1013.6
20260508062306 47 68 2.0 5.0 0.00 0.15 0.00 94 1013.6
20260508061804 47 70 2.0 5.0 0.00 0.15 0.00 94 1013.8
20260508061304 47 63 2.0 5.0 0.00 0.15 0.00 94 1013.5
20260508060303 47 32 1.0 3.0 0.00 0.15 0.00 95 1013.3
20260508055804 47 41 2.0 5.0 0.00 0.15 0.00 95 1013.3
20260508055306 47 25 1.0 6.0 0.00 0.15 0.00 95 1013.2
20260508054804 47 18 3.0 5.0 0.00 0.15 0.00 95 1013.1
20260508054303 47 27 1.0 2.0 0.00 0.15 0.00 95 1013.2
20260508053804 47 32 1.0 1.0 0.00 0.15 0.00 95 1013.3
20260508052306 46 41 0.0 1.0 0.00 0.15 0.00 95 1013.3
20260508051804 46 72 0.0 2.0 0.00 0.15 0.00 95 1013.3
20260508050804 46 264 1.0 3.0 0.00 0.15 0.00 95 1013.1
20260508050304 46 294 1.0 3.0 0.00 0.15 0.00 95 1013.2
20260508045803 47 337 2.0 5.0 0.00 0.15 0.00 94 1012.9
20260508044803 47 68 2.0 6.0 0.00 0.15 0.00 94 1012.6
20260508044304 47 71 3.0 8.0 0.00 0.15 0.00 94 1012.7
20260508043803 47 113 2.0 8.0 0.00 0.15 0.00 94 1012.3
20260508043303 46 36 3.0 8.0 0.00 0.15 0.00 94 1012.2
20260508042803 46 104 4.0 12.0 0.00 0.15 0.00 94 1012.2
20260508042306 46 98 3.0 9.0 0.00 0.15 0.00 94 1012.3
20260508041804 46 110 4.0 9.0 0.00 0.15 0.00 94 1012.2
20260508041304 46 92 3.0 8.0 0.00 0.15 0.00 94 1012.4
20260508040803 46 124 5.0 9.0 0.00 0.15 0.00 94 1012.6
20260508035803 46 78 5.0 9.0 0.00 0.15 0.00 93 1012.3
20260508035306 46 100 4.0 9.0 0.00 0.15 0.00 93 1012.4
20260508034304 46 134 5.0 9.0 0.00 0.15 0.00 92 1012.5
20260508033804 46 125 3.0 8.0 0.00 0.15 0.00 92 1012.5
20260508033304 46 133 3.0 8.0 0.00 0.15 0.00 92 1012.3
20260508032804 46 82 3.0 9.0 0.00 0.15 0.00 92 1012.3
20260508031804 46 119 3.0 8.0 0.00 0.15 0.00 92 1012.1
20260508031304 46 108 5.0 9.0 0.00 0.15 0.00 91 1012.1
20260508030304 46 114 5.0 9.0 0.00 0.15 0.00 90 1012.1
20260508025804 46 117 4.0 8.0 0.00 0.15 0.00 91 1012.1
20260508025306 46 82 3.0 8.0 0.00 0.15 0.00 90 1012.1
20260508024804 46 132 4.0 9.0 0.00 0.15 0.00 90 1012.2
20260508024304 46 103 5.0 8.0 0.00 0.15 0.00 90 1012.1
20260508023804 46 152 5.0 9.0 0.00 0.15 0.00 90 1012.3
20260508023304 46 96 3.0 8.0 0.00 0.15 0.00 90 1012.1
20260508022804 46 63 3.0 10.0 0.00 0.15 0.00 90 1012.4
20260508022307 46 81 3.0 7.0 0.00 0.15 0.00 90 1012.3
20260508021803 46 89 2.0 6.0 0.00 0.15 0.00 90 1012.6
20260508021304 46 73 3.0 6.0 0.00 0.15 0.00 90 1012.6
20260508020804 46 115 2.0 5.0 0.00 0.15 0.00 90 1012.7
20260508015803 46 99 2.0 5.0 0.00 0.15 0.00 90 1013.5
20260508015306 46 166 1.0 2.0 0.00 0.15 0.00 90 1013.8
20260508014804 46 257 1.0 3.0 0.00 0.15 0.00 89 1013.6
20260508014303 47 108 1.0 6.0 0.00 0.15 0.00 89 1013.7
20260508013804 47 120 2.0 7.0 0.00 0.15 0.00 89 1013.8
20260508013304 46 112 2.0 7.0 0.00 0.15 0.00 90 1013.7
20260508012307 46 51 1.0 3.0 0.00 0.15 0.00 90 1013.8
20260508011803 46 66 1.0 3.0 0.00 0.15 0.00 90 1013.8
20260508011304 46 18 1.0 3.0 0.00 0.15 0.00 90 1013.9
20260508010804 46 359 1.0 3.0 0.00 0.15 0.00 90 1013.9
20260508010304 46 25 1.0 3.0 0.00 0.15 0.00 89 1014.0
20260508005803 46 7 1.0 3.0 0.00 0.15 0.00 89 1014.0
20260508005306 46 9 3.0 5.0 0.00 0.15 0.00 90 1014.3
20260508004804 46 349 3.0 5.0 0.00 0.15 0.00 90 1014.3
20260508004304 46 337 3.0 7.0 0.00 0.15 0.00 91 1014.2
20260508003804 45 1 2.0 5.0 0.00 0.15 0.00 91 1014.5
20260508003303 45 323 2.0 3.0 0.00 0.15 0.00 91 1014.6
20260508002803 45 4 3.0 5.0 0.00 0.15 0.00 91 1014.4
20260508001304 45 354 1.0 2.0 0.00 0.15 0.00 91 1015.0
20260508000804 45 10 1.0 3.0 0.00 0.15 0.00 91 1015.1
20260508000305 45 28 1.0 2.0 0.00 0.15 0.00 91 1014.8
20260507235804 45 40 1.0 2.0 0.00 0.15 0.00 91 1015.0
20260507235307 45 27 1.0 2.0 0.00 0.15 0.00 91 1014.9
20260507234803 45 38 1.0 2.0 0.00 0.15 0.00 92 1014.8
20260507234304 45 120 1.0 3.0 0.00 0.15 0.00 92 1015.1
20260507233304 45 329 0.0 1.0 0.00 0.15 0.00 92 1014.5
20260507232803 45 359 1.0 2.0 0.00 0.15 0.00 92 1014.5
20260507232306 45 12 1.0 2.0 0.00 0.15 0.00 92 1014.5
20260507231804 45 357 2.0 3.0 0.00 0.15 0.00 91 1014.5
20260507231303 45 11 2.0 5.0 0.00 0.15 0.00 92 1014.4
20260507230804 45 9 2.0 6.0 0.00 0.15 0.00 92 1014.6
20260507225804 45 20 2.0 6.0 0.00 0.15 0.00 92 1014.8
20260507224804 45 9 1.0 2.0 0.00 0.15 0.00 92 1014.8
20260507224304 45 8 1.0 2.0 0.00 0.15 0.00 91 1014.9
20260507223804 46 19 1.0 3.0 0.00 0.15 0.00 91 1015.0
20260507223304 46 45 1.0 2.0 0.00 0.15 0.00 91 1014.8
20260507222306 46 44 2.0 5.0 0.00 0.15 0.00 91 1014.7
20260507221804 46 59 2.0 5.0 0.00 0.15 0.00 91 1014.6
20260507221304 46 50 3.0 5.0 0.00 0.15 0.00 91 1014.7
20260507220804 46 43 2.0 5.0 0.00 0.15 0.00 92 1014.7
20260507220304 46 50 2.0 3.0 0.00 0.15 0.00 92 1014.8
20260507215803 46 15 2.0 3.0 0.00 0.15 0.15 92 1014.8
20260507215306 46 35 2.0 5.0 0.00 0.15 0.15 92 1014.6
20260507214804 46 35 2.0 5.0 0.00 0.15 0.15 91 1014.6
20260507214304 46 47 2.0 3.0 0.00 0.15 0.15 92 1014.8
20260507213804 46 8 1.0 3.0 0.00 0.15 0.15 92 1014.8
20260507213304 46 4 1.0 3.0 0.00 0.15 0.15 91 1014.7
20260507212804 47 343 2.0 3.0 0.00 0.15 0.15 91 1014.4
20260507212306 47 0 1.0 2.0 0.00 0.15 0.15 91 1014.2
20260507211803 47 27 1.0 2.0 0.00 0.15 0.15 91 1014.3
20260507211303 47 351 0.0 1.0 0.00 0.15 0.15 91 1014.5
20260507210804 47 352 0.0 2.0 0.00 0.15 0.15 90 1014.5
20260507210304 47 40 1.0 2.0 0.00 0.15 0.15 90 1014.4
20260507205803 47 30 1.0 3.0 0.00 0.15 0.15 90 1014.5
20260507203804 48 51 0.0 0.0 0.00 0.15 0.15 88 1013.9
20260507203304 48 334 0.0 1.0 0.00 0.15 0.15 88 1014.0
20260507202804 48 59 1.0 2.0 0.00 0.15 0.15 87 1014.0
20260507201803 49 56 1.0 2.0 0.00 0.15 0.15 86 1013.8
20260507200803 49 72 1.0 2.0 0.00 0.15 0.15 86 1013.7
20260507195804 49 171 0.0 2.0 0.00 0.15 0.15 86 1013.4
20260507194804 50 126 1.0 1.0 0.00 0.15 0.15 85 1013.1
20260507193804 50 161 0.0 1.0 0.00 0.15 0.15 84 1013.0
20260507192804 51 44 1.0 2.0 0.00 0.15 0.15 83 1012.9
20260507192306 51 31 1.0 3.0 0.00 0.15 0.15 82 1012.9
20260507191803 51 90 1.0 3.0 0.00 0.15 0.15 81 1012.6
20260507191303 51 77 0.0 1.0 0.00 0.15 0.15 80 1012.8
20260507190803 52 128 1.0 3.0 0.00 0.15 0.15 80 1012.5
20260507190303 52 32 2.0 5.0 0.00 0.15 0.15 79 1012.4
20260507185804 52 73 3.0 5.0 0.00 0.15 0.15 78 1012.1
20260507185306 53 32 2.0 7.0 0.00 0.15 0.15 76 1012.1
20260507184803 53 98 2.0 5.0 0.00 0.15 0.15 75 1012.0
20260507183804 54 96 1.0 7.0 0.00 0.15 0.15 74 1012.0
20260507183304 54 54 2.0 8.0 0.00 0.15 0.15 74 1011.9
20260507182804 54 32 3.0 7.0 0.00 0.15 0.15 74 1011.9
20260507182306 54 101 3.0 12.0 0.00 0.15 0.15 73 1011.7
20260507181304 54 122 3.0 9.0 0.00 0.15 0.15 72 1011.9
20260507180804 54 95 4.0 8.0 0.00 0.15 0.15 72 1011.7
20260507180304 54 67 3.0 7.0 0.00 0.15 0.15 72 1011.7
20260507175804 55 109 3.0 9.0 0.00 0.15 0.15 72 1011.8
20260507175306 55 119 5.0 8.0 0.00 0.15 0.15 71 1012.1
20260507174804 55 118 3.0 8.0 0.00 0.15 0.15 71 1012.0
20260507174304 55 120 6.0 10.0 0.00 0.15 0.15 70 1012.1
20260507173804 55 95 3.0 7.0 0.00 0.15 0.15 71 1012.0
20260507173304 56 144 4.0 8.0 0.00 0.15 0.15 69 1012.0
20260507172804 55 121 3.0 9.0 0.00 0.15 0.15 70 1012.0
20260507172307 56 110 3.0 8.0 0.00 0.15 0.15 70 1011.9
20260507171804 55 59 3.0 6.0 0.00 0.15 0.15 70 1012.2
20260507171303 55 109 3.0 6.0 0.00 0.15 0.15 71 1012.4
20260507170803 54 147 2.0 7.0 0.00 0.15 0.15 73 1012.4
20260507170304 54 149 3.0 9.0 0.00 0.15 0.15 73 1012.5
20260507165804 54 117 2.0 7.0 0.00 0.15 0.15 72 1012.5
20260507164305 55 109 2.0 5.0 0.00 0.15 0.15 72 1012.6
20260507163805 55 124 3.0 6.0 0.00 0.15 0.15 72 1012.4
20260507163305 54 62 2.0 7.0 0.00 0.15 0.15 72 1012.5
20260507162805 54 102 5.0 8.0 0.00 0.15 0.15 70 1012.4
20260507162307 54 90 5.0 10.0 0.00 0.15 0.15 71 1012.3
20260507161805 54 117 5.0 10.0 0.00 0.15 0.15 72 1012.4
20260507161306 54 136 3.0 10.0 0.00 0.15 0.15 73 1012.7
20260507160306 54 104 5.0 10.0 0.00 0.15 0.15 71 1012.4
20260507155805 55 86 5.0 10.0 0.00 0.15 0.15 70 1012.2
20260507155306 55 125 4.0 8.0 0.00 0.15 0.15 70 1012.3
20260507154804 55 77 4.0 12.0 0.00 0.15 0.15 71 1012.2
20260507154304 56 73 5.0 9.0 0.00 0.15 0.15 70 1012.3
20260507153804 57 85 6.0 13.0 0.00 0.15 0.15 70 1011.9
20260507153304 58 66 8.0 13.0 0.00 0.15 0.15 68 1012.2
20260507152804 58 64 6.0 13.0 0.00 0.15 0.15 68 1011.9
20260507152306 58 110 5.0 13.0 0.00 0.15 0.15 69 1012.0
20260507151805 59 63 6.0 13.0 0.00 0.15 0.15 67 1011.7
20260507150805 58 104 6.0 13.0 0.00 0.15 0.15 67 1011.9
20260507150305 57 85 6.0 14.0 0.00 0.15 0.15 70 1011.7
20260507145805 58 81 4.0 12.0 0.00 0.15 0.15 70 1011.7
20260507145307 58 113 5.0 10.0 0.00 0.15 0.15 72 1011.6
20260507144804 57 36 3.0 10.0 0.00 0.15 0.15 76 1011.9
20260507143304 56 92 4.0 10.0 0.00 0.15 0.15 76 1012.1
20260507142804 55 82 5.0 10.0 0.01 0.15 0.15 80 1012.2
20260507142306 55 76 5.0 12.0 0.01 0.15 0.15 81 1012.2
20260507141805 55 71 6.0 10.0 0.01 0.15 0.15 80 1012.2
20260507140805 53 55 5.0 8.0 0.01 0.15 0.15 84 1012.4
20260507135804 51 31 4.0 8.0 0.02 0.15 0.15 90 1012.6
20260507135306 50 22 5.0 8.0 0.02 0.15 0.15 90 1012.6
20260507134305 49 72 4.0 9.0 0.02 0.15 0.15 91 1012.9
20260507133805 49 60 5.0 9.0 0.02 0.15 0.15 91 1012.8
20260507133305 49 40 5.0 8.0 0.02 0.15 0.15 91 1012.8
20260507132805 49 35 3.0 7.0 0.02 0.14 0.14 92 1013.0
20260507132307 49 33 4.0 7.0 0.02 0.14 0.14 92 1013.3
20260507131805 49 355 3.0 5.0 0.03 0.14 0.14 91 1013.1
20260507131305 49 350 2.0 5.0 0.04 0.14 0.14 91 1013.3
20260507130804 49 326 2.0 5.0 0.06 0.14 0.14 91 1013.4
20260507130305 49 323 3.0 6.0 0.07 0.13 0.13 91 1013.6
20260507125805 49 287 3.0 7.0 0.09 0.13 0.13 91 1013.5
20260507125307 49 350 3.0 7.0 0.11 0.13 0.13 90 1013.7
20260507124805 49 331 4.0 8.0 0.11 0.13 0.13 90 1013.5
20260507123804 48 320 3.0 7.0 0.11 0.13 0.13 91 1014.0
20260507123305 48 322 2.0 6.0 0.11 0.13 0.13 91 1014.0
20260507122804 48 272 1.0 3.0 0.10 0.12 0.12 91 1014.0
20260507122307 48 271 3.0 5.0 0.10 0.12 0.12 90 1014.2
20260507121805 48 267 2.0 7.0 0.09 0.11 0.11 89 1014.3
20260507121304 48 253 4.0 8.0 0.08 0.10 0.10 87 1014.3
20260507120304 49 264 2.0 8.0 0.04 0.06 0.06 84 1014.3
20260507115307 51 270 3.0 7.0 0.00 0.02 0.02 78 1014.0
20260507114805 51 258 3.0 8.0 0.01 0.02 0.02 78 1013.9